Find Starlink 32039

NORAD ID: 60604 Int'l Des: 2024-150 Owner: SPXS Country: US Constellation: starlink operational
LEOCIRCULAR

Live Position

Loading 3D Globe...

About Starlink 32039

Description loading...

Upcoming Passes

Passes for default location (London). Set your location on the main map for personalized predictions.

Altitude History

Loading altitude history...

Two-Line Element Set

1 60604U 24150X 26105.27250633 -.00000625 00000-0 -89912-5 0 9999
2 60604 53.1591 139.8505 0001082 90.6581 269.4544 15.30189793 93601
Epoch: Apr 15, 2026 • Age: 35 hours

Current Status

Altitude 480.8 km
Velocity 7.63 km/s
Sub-Earth Point 52.06°N, 100.55°E
Launch Date Aug 20, 2024
Age 1.6 years
Type internet

Technical Details

Classification Payload
Mass 730.00 kg
Dry Mass 700.00 kg
Total Mass 730.00 kg
Length 0.30 m
Diameter 4.10 m
Span 29.00 m
Shape Box + pan
Manufacturer SPXS
Bus Type Starlink V2M
Phase Status In Orbit
Owner/State SPXS/US

Most Searched